TimeCST,TemperatureF,Dew PointF,Humidity,Sea Level PressureIn,VisibilityMPH,Wind Direction,Wind SpeedMPH,Gust SpeedMPH,PrecipitationIn,Events,Conditions,WindDirDegrees,DateUTC
12:45 AM,75.2,75.2,100,30.00,7.0,ENE,5.8,-,N/A,,Mostly Cloudy,60,2013-10-29 06:45:00
1:44 AM,75.2,75.2,100,29.99,7.0,ENE,5.8,-,N/A,,Mostly Cloudy,60,2013-10-29 07:44:00
2:46 AM,75.2,75.2,100,29.95,7.0,East,5.8,-,N/A,,Mostly Cloudy,80,2013-10-29 08:46:00
3:45 AM,75.2,75.2,100,29.98,6.0,ENE,5.8,-,N/A,Rain,Light Rain,60,2013-10-29 09:45:00
4:44 AM,75.2,75.2,100,29.99,6.0,NE,5.8,-,N/A,,Mostly Cloudy,50,2013-10-29 10:44:00
5:43 AM,78.8,77.0,94,29.98,7.0,ENE,5.8,-,N/A,,Mostly Cloudy,60,2013-10-29 11:43:00
6:44 AM,80.6,77.0,89,30.04,6.0,ENE,5.8,-,N/A,,Mostly Cloudy,60,2013-10-29 12:44:00
7:48 AM,82.4,77.0,84,30.06,6.0,ENE,13.8,-,N/A,,Scattered Clouds,60,2013-10-29 13:48:00
8:52 AM,84.2,77.0,79,30.08,6.0,ENE,11.5,-,N/A,,Mostly Cloudy,70,2013-10-29 14:52:00
9:44 AM,86.0,78.8,79,30.08,6.0,ENE,11.5,-,N/A,,Mostly Cloudy,60,2013-10-29 15:44:00
10:44 AM,84.2,77.0,79,30.07,6.0,ENE,6.9,-,N/A,,Mostly Cloudy,60,2013-10-29 16:44:00
11:45 AM,86.0,78.8,79,30.03,7.0,ESE,6.9,-,N/A,,Mostly Cloudy,110,2013-10-29 17:45:00
12:40 PM,84.2,77.0,79,30.01,7.0,East,17.3,-,N/A,,Mostly Cloudy,100,2013-10-29 18:40:00
1:28 PM,80.6,77.0,89,3.00,4.0,ESE,8.1,20.7,N/A,Rain,Rain,110,2013-10-29 19:28:00
1:46 PM,80.6,77.0,89,29.99,6.0,East,5.8,-,N/A,,Mostly Cloudy,90,2013-10-29 19:46:00
2:44 PM,84.2,75.2,74,29.97,6.0,East,12.7,-,N/A,,Scattered Clouds,100,2013-10-29 20:44:00
3:48 PM,84.2,77.0,79,29.99,6.0,ENE,9.2,-,N/A,,Scattered Clouds,70,2013-10-29 21:48:00
4:41 PM,82.4,77.0,84,30.00,7.0,ENE,6.9,-,N/A,,Scattered Clouds,70,2013-10-29 22:41:00
5:45 PM,80.6,77.0,89,30.02,7.0,East,3.5,-,N/A,,Scattered Clouds,100,2013-10-29 23:45:00
6:43 PM,80.6,77.0,89,30.03,7.0,East,9.2,-,N/A,,Scattered Clouds,100,2013-10-30 00:43:00
7:47 PM,80.6,77.0,89,30.04,7.0,NE,6.9,-,N/A,,Partly Cloudy,50,2013-10-30 01:47:00
8:42 PM,80.6,77.0,89,30.04,7.0,ESE,5.8,-,N/A,,Partly Cloudy,110,2013-10-30 02:42:00
9:50 PM,80.6,75.2,84,30.06,7.0,East,8.1,-,N/A,,Scattered Clouds,80,2013-10-30 03:50:00
10:46 PM,80.6,75.2,84,30.05,7.0,ENE,6.9,-,N/A,,Scattered Clouds,70,2013-10-30 04:46:00
11:49 PM,80.6,75.2,84,30.02,7.0,East,5.8,-,N/A,,Scattered Clouds,80,2013-10-30 05:49:00